Theta_e
309 309 310 310 310 310 310 311 312 313 315 316 317 316 316 318 320 320 321 325 327 323 322 332 340 339 339 337 341 342 345 348 344 342 339 340 340 344 346 347 350 350 348 350 350
309 310 310 310 310 310 311 311 311 312 312 314 316 317 316 316 318 319 319 323 324 325 321 327 333 338 336 338 340 344 347 345 344 343 341 340 340 339 342 344 346 350 349 349 350
307 308 309 310 310 311 311 311 311 312 312 312 314 316 315 316 318 326 326 324 322 322 322 326 329 334 336 338 339 342 345 342 343 342 341 341 340 339 341 343 344 350 350 349 351
306 307 307 308 309 310 311 311 311 312 312 312 312 314 314 315 325 327 322 322 321 320 324 326 329 333 335 338 337 338 341 342 342 343 343 341 341 340 341 342 344 350 351 350 350
305 306 307 307 308 308 309 311 312 312 312 313 313 313 313 322 325 324 324 323 321 320 326 329 329 333 335 337 336 336 340 339 338 339 340 342 342 341 340 342 343 346 350 350 349
304 305 306 306 307 308 309 310 311 313 313 313 313 313 312 321 323 326 324 326 324 325 326 329 329 332 333 335 335 335 336 337 336 337 338 344 343 340 339 340 343 345 347 350 350
304 304 305 306 306 307 308 309 310 312 313 314 313 312 317 319 325 325 325 328 326 328 326 328 329 330 332 333 333 334 335 336 336 336 339 339 344 342 340 340 343 344 345 347 349
305 305 305 306 307 307 308 309 310 311 313 313 313 313 320 320 324 325 325 326 327 328 327 328 327 328 330 331 332 333 334 336 337 338 338 339 345 340 342 341 342 344 344 345 346
304 304 306 306 307 307 309 310 311 311 312 313 314 321 327 325 326 326 326 325 325 326 328 327 327 326 327 330 331 333 335 336 337 339 339 339 344 344 343 342 342 343 344 345 346
304 304 306 306 306 308 309 311 312 314 316 318 318 329 329 328 328 326 326 325 325 327 326 327 327 328 327 329 331 333 335 337 338 341 340 346 347 342 343 343 343 342 343 345 345
307 306 306 307 307 307 309 313 321 324 326 328 329 324 326 329 327 329 328 328 327 327 328 328 328 328 329 329 332 333 336 338 338 342 341 348 345 341 340 345 342 343 342 344 345
308 307 308 308 308 307 311 317 317 315 316 317 319 325 328 328 328 329 327 328 327 327 329 328 328 327 328 331 331 333 335 338 339 343 343 345 348 344 346 348 343 343 342 342 343
309 307 307 309 308 316 313 313 316 315 316 318 319 319 322 328 328 326 327 329 327 327 329 328 328 327 328 330 332 333 335 337 339 341 341 341 343 350 348 345 345 343 343 342 343
307 306 305 307 311 313 314 316 313 314 317 322 324 322 321 322 324 323 325 328 329 327 327 329 329 328 327 329 331 334 334 335 337 342 344 342 345 346 346 348 346 345 345 344 343
305 305 304 304 306 309 314 313 313 315 323 329 326 325 324 323 326 324 324 325 327 329 329 328 328 328 327 328 330 334 335 335 336 340 344 347 346 349 348 349 350 347 346 346 345
304 304 304 306 308 312 311 312 314 319 323 327 328 327 325 324 326 329 324 324 325 326 329 329 328 329 328 328 329 332 334 335 336 338 341 345 345 346 348 345 344 348 346 346 346
304 304 304 304 309 311 312 313 317 320 326 328 329 329 329 327 326 329 327 326 328 328 329 330 329 329 329 328 329 329 332 336 337 339 340 341 346 348 347 346 344 345 345 347 347
305 305 306 308 310 310 310 314 318 323 323 327 328 329 328 329 328 329 330 329 328 328 329 330 330 329 329 328 328 329 330 336 339 340 339 339 342 344 346 344 343 342 343 346 348
304 307 309 310 311 312 313 313 319 321 325 326 327 327 328 328 329 328 329 329 328 328 330 330 330 331 329 330 328 329 329 331 334 336 338 339 339 338 342 345 343 342 341 343 347
304 308 312 313 312 312 314 316 318 319 322 324 325 326 328 329 328 329 329 330 330 328 329 329 331 331 331 330 330 328 330 329 332 338 341 339 342 343 343 347 344 344 341 339 337
307 310 310 312 313 314 318 316 317 317 318 319 320 322 325 328 329 329 329 330 330 330 329 328 331 330 332 331 329 328 328 329 331 334 338 342 341 342 347 349 347 345 341 338 337
307 310 312 313 315 316 318 318 317 318 318 320 321 321 321 322 327 328 330 329 329 330 330 329 329 332 331 332 331 329 329 328 330 336 335 337 340 339 344 342 344 342 339 338 337
306 307 308 309 313 313 314 315 317 319 320 321 321 320 321 321 324 325 328 329 329 329 329 331 331 333 330 331 333 330 329 329 328 330 334 337 338 338 340 339 343 341 339 339 338
306 309 308 309 310 312 313 313 314 314 317 318 320 321 322 322 323 324 324 327 328 329 327 331 330 333 333 333 332 333 331 330 329 329 332 333 338 338 342 343 341 341 338 338 337
305 308 308 309 310 312 312 314 315 316 315 316 319 320 321 323 322 321 322 323 326 329 330 329 333 332 330 330 332 333 331 331 331 332 333 333 334 338 340 343 340 339 337 336 338
304 306 307 308 308 309 309 310 311 312 314 313 315 318 319 320 320 320 322 324 326 328 328 328 332 331 332 332 331 332 333 331 330 331 331 332 332 334 335 336 339 338 336 338 336
304 304 306 308 308 308 308 308 310 311 311 313 313 315 317 317 316 315 316 319 324 327 330 331 329 334 334 331 332 333 333 333 332 329 330 330 333 334 335 337 341 341 338 340 338
Wind_Speed
17 17 17 17 17 17 18 19 18 18 16 17 19 19 19 21 21 23 22 13 13 16 16 10 11 17 19 17 19 24 7 5 7 9 13 11 12 15 20 22 24 4 30 30 29
18 18 18 18 18 18 19 19 19 19 19 18 18 19 19 22 25 28 22 15 15 18 17 15 19 16 21 19 23 5 6 7 19 6 10 15 16 13 13 15 15 28 29 30 30
18 19 19 19 19 19 20 19 20 20 20 19 18 19 18 20 24 9 8 16 18 22 23 18 20 20 22 19 22 14 9 18 23 21 16 9 19 13 20 12 17 34 31 30 32
20 20 20 20 20 20 21 20 20 20 20 19 19 19 19 16 6 3 2 8 5 15 21 21 23 23 19 17 21 10 21 24 8 19 19 14 20 13 17 17 23 26 28 30 29
21 21 20 20 21 21 22 22 21 21 20 19 19 19 18 12 27 19 16 15 16 11 22 23 25 24 20 18 22 16 21 17 6 9 11 10 17 16 10 23 23 25 29 30 28
22 22 22 22 22 22 22 22 23 21 20 20 18 18 15 19 10 11 11 12 11 15 21 24 22 22 24 22 21 20 13 14 13 9 14 18 18 18 15 20 25 27 30 30 28
24 24 23 23 24 24 23 22 23 22 21 19 18 17 15 32 11 9 8 13 10 15 20 23 23 22 24 20 25 26 19 9 11 11 9 13 17 12 23 19 24 25 28 29 28
24 24 24 23 24 26 26 23 23 21 21 20 16 13 14 20 16 21 17 17 15 16 17 19 21 24 24 22 24 22 20 16 18 17 11 15 11 12 26 20 23 25 27 29 28
25 25 24 24 24 24 24 23 24 21 20 19 11 7 17 10 19 19 19 21 18 17 18 18 21 24 23 19 18 21 18 21 21 13 17 14 16 5 18 22 25 26 27 28 28
28 27 26 25 24 25 22 19 20 20 16 12 13 9 25 19 14 15 15 20 20 18 19 20 21 16 18 17 16 19 21 19 18 18 18 19 12 13 24 15 24 27 27 28 29
29 29 28 25 23 22 19 13 11 6 7 17 12 16 15 14 17 15 13 18 20 20 18 23 16 20 24 24 23 22 20 22 15 10 17 22 13 10 38 32 25 27 28 29 29
32 31 30 26 21 13 10 8 13 12 18 25 36 36 35 16 14 19 16 17 21 18 20 19 23 24 23 25 26 27 26 24 14 21 20 19 26 31 31 31 28 29 28 29 29
32 32 31 27 14 6 13 17 12 14 13 25 39 41 42 33 29 24 23 23 16 22 22 23 22 23 24 25 27 27 26 23 20 20 22 17 18 23 28 26 25 28 30 29 32
31 31 31 30 4 8 9 7 10 13 7 11 21 26 35 35 36 36 31 29 20 22 23 24 24 24 26 27 27 26 26 27 25 15 12 16 12 4 18 21 21 27 29 32 33
28 27 29 17 22 16 10 12 15 8 7 4 17 6 18 36 6 36 39 34 27 24 19 23 25 26 26 28 28 26 26 26 25 12 18 20 12 12 26 20 25 21 30 31 35
28 25 25 17 14 11 11 15 10 7 11 7 12 12 18 26 30 11 34 36 32 27 25 25 25 27 26 22 27 25 25 25 22 19 17 22 15 21 17 22 20 24 30 31 33
29 25 20 21 20 9 5 8 6 11 8 14 16 15 21 21 27 17 23 27 22 24 25 25 26 25 24 25 25 28 23 16 17 17 16 19 21 13 23 23 20 4 29 33 32
30 29 21 18 16 8 8 8 16 12 28 16 15 19 21 22 25 24 22 22 27 26 18 21 20 27 22 28 24 26 26 16 21 17 19 22 20 16 23 23 21 40 65 37 39
32 26 25 16 16 14 17 15 11 19 19 20 23 20 23 25 24 26 27 23 25 29 25 20 24 19 30 23 26 26 25 27 26 23 17 18 23 22 17 23 20 25 22 27 37
31 28 22 13 16 21 14 29 17 25 25 22 23 22 26 25 27 27 27 27 25 28 28 24 18 23 22 24 28 29 18 23 20 25 25 21 21 13 19 19 17 11 16 19 20
21 16 20 7 14 19 17 24 26 42 40 29 29 30 28 25 28 28 28 24 27 25 27 26 22 19 24 26 26 18 22 23 20 21 17 17 17 15 17 16 20 21 29 23 17
18 9 2 7 14 16 18 27 32 31 41 31 29 33 31 30 28 28 30 27 24 21 29 26 17 19 25 24 27 29 27 27 17 21 19 20 16 16 9 20 17 15 22 20 30
16 25 25 25 15 16 24 30 31 28 29 32 32 31 29 30 28 30 29 27 29 27 25 20 21 16 24 23 23 30 27 24 24 21 24 18 17 20 6 12 16 17 22 25 12
10 6 20 22 31 24 23 26 27 33 24 28 27 24 32 32 29 29 28 29 24 22 7 14 18 27 18 21 18 24 29 28 26 18 20 22 19 27 9 16 15 16 26 22 18
7 8 18 12 18 21 13 23 18 24 28 25 22 21 19 21 29 29 30 30 27 23 14 15 17 21 28 28 25 26 27 27 26 24 23 20 26 20 23 15 20 21 24 22 15
6 12 15 22 27 24 19 17 25 23 23 19 19 20 21 19 14 18 22 27 25 25 19 21 17 18 22 24 27 26 26 27 28 29 27 25 26 21 23 26 18 21 30 21 21
11 17 11 13 16 16 18 20 19 23 18 25 19 11 21 17 29 37 36 36 29 23 21 20 16 16 20 24 24 24 28 22 21 24 24 22 23 19 20 16 14 16 16 23 24
Wind_Direction
323 322 320 318 317 314 311 311 310 308 306 304 305 306 307 304 301 294 274 250 246 243 243 250 261 252 262 256 263 248 314 245 185 91 120 158 111 93 109 131 129 190 146 150 149
322 319 317 316 314 312 311 310 309 308 306 303 302 304 308 305 298 287 272 246 241 235 235 232 240 247 256 251 251 128 357 42 254 189 140 151 135 119 132 152 136 134 143 147 156
322 319 316 314 314 311 311 309 308 308 306 305 303 302 307 310 312 283 229 225 240 237 236 235 242 246 252 257 256 128 192 251 283 145 181 174 130 153 136 178 136 132 145 155 160
329 324 321 317 314 311 308 306 306 304 304 304 304 302 304 307 275 124 2 217 274 226 219 227 235 241 245 249 255 230 181 241 76 161 149 182 140 150 155 169 153 149 157 163 166
330 326 324 321 317 311 307 305 303 302 302 302 302 302 305 270 258 278 249 259 262 244 207 215 226 230 244 243 253 234 191 247 203 168 189 193 141 135 133 141 151 154 163 169 172
334 329 326 323 317 311 306 303 300 299 299 299 299 296 293 264 273 227 266 251 229 209 211 215 226 227 243 248 259 255 236 247 262 222 180 180 151 143 150 147 154 157 169 174 178
332 328 326 322 319 314 309 305 299 296 295 293 295 288 263 248 258 209 239 221 213 212 214 219 227 234 237 255 256 268 277 243 249 261 177 206 154 165 148 161 154 165 173 177 182
330 327 326 324 319 316 313 309 300 295 289 288 286 275 258 273 254 241 235 227 227 220 222 224 225 240 246 245 255 265 254 255 231 200 170 200 176 159 152 170 166 169 177 180 185
334 329 326 329 321 316 311 310 304 296 285 280 280 244 269 264 226 229 230 222 221 226 226 224 225 225 237 249 249 243 250 231 252 181 153 201 139 352 168 171 174 176 180 183 187
333 330 329 329 326 322 318 311 304 292 285 271 229 259 251 231 216 221 216 214 219 213 219 217 224 225 220 226 231 232 229 238 218 202 182 105 90 348 271 223 187 182 183 186 189
331 328 327 327 329 327 328 339 315 298 230 237 214 222 275 224 230 198 198 205 214 207 212 205 216 217 219 218 232 246 243 233 230 193 204 143 126 202 249 249 192 181 189 187 192
326 328 325 324 328 328 336 325 331 309 299 262 254 250 252 223 204 209 215 205 214 210 208 212 220 223 221 215 226 244 255 254 205 184 219 172 165 169 219 223 187 184 191 194 195
326 328 328 323 329 358 309 294 294 317 289 283 243 236 228 233 241 231 211 208 214 217 208 224 218 225 225 219 216 233 244 252 253 184 202 207 212 179 188 184 193 189 191 198 196
328 328 330 328 319 291 321 324 327 317 279 267 225 234 222 222 236 230 224 211 222 224 226 228 237 210 226 220 220 226 234 251 262 166 202 230 220 141 258 183 193 187 195 193 197
329 326 324 334 306 297 293 313 314 298 282 123 180 220 198 201 203 214 216 221 224 222 230 230 226 235 210 225 222 231 230 238 255 230 204 208 239 222 214 192 185 195 196 199 191
328 327 321 321 288 320 314 310 308 241 244 247 149 188 185 203 218 177 195 215 226 233 231 241 232 227 236 213 230 231 241 248 243 253 249 201 205 253 195 190 244 190 199 199 193
324 321 309 296 276 289 320 250 225 231 236 232 190 192 208 195 215 169 187 201 216 212 223 229 235 237 224 233 211 230 225 235 238 237 247 229 206 210 204 208 209 104 289 191 195
323 322 312 287 275 274 268 239 232 239 223 276 283 198 210 208 208 215 195 210 211 215 219 221 223 227 220 223 223 215 228 227 228 230 242 236 244 222 174 184 175 179 205 193 191
323 323 308 272 247 227 232 226 229 226 275 240 258 259 215 218 227 208 205 214 215 215 222 220 228 227 224 218 224 214 225 227 239 241 248 239 224 234 216 173 186 232 228 205 186
324 314 300 297 223 212 226 234 240 257 275 285 269 274 250 218 219 223 211 209 218 213 224 241 252 214 212 225 222 229 217 222 235 239 241 245 253 213 225 171 194 215 230 212 225
323 303 290 241 194 219 234 245 249 265 275 278 284 276 274 246 243 227 227 227 210 216 211 227 251 245 207 204 222 214 228 235 233 239 247 244 247 236 206 195 178 189 211 223 221
308 274 9 251 245 237 249 256 262 267 275 278 265 259 267 280 268 258 228 229 232 219 217 211 227 244 248 214 211 220 215 227 239 232 233 252 252 241 241 207 181 202 211 210 224
300 286 269 270 265 260 267 270 267 266 261 264 268 271 273 260 268 271 267 246 223 226 227 218 215 229 240 248 222 211 225 228 230 250 254 232 247 257 256 94 254 201 215 218 214
300 299 304 258 245 253 268 271 276 277 282 278 274 286 269 263 255 265 269 273 249 224 92 205 237 217 236 228 229 219 219 219 230 232 242 248 247 249 216 177 201 228 196 223 229
274 276 302 304 298 303 5 314 306 297 295 297 303 297 307 284 257 251 256 268 267 240 209 223 240 247 218 249 238 231 220 226 224 237 244 240 243 247 250 217 193 209 180 210 221
258 298 319 298 297 298 293 258 271 274 284 313 290 289 306 295 345 319 308 255 255 245 209 217 234 249 249 235 238 250 229 229 221 226 236 251 258 244 249 254 254 177 214 206 219
269 284 298 283 290 290 290 296 294 290 285 311 333 292 293 323 320 307 293 285 285 245 242 202 227 228 240 241 245 238 241 244 240 225 227 236 248 260 262 257 247 222 236 205 198